Weather History for PAFA - March, 2014

Change the Weather History Date:

Saturday, March 8, 2014

  Actual Average Record
Temperature  
Mean Temperature -2 °F 7 °F  
Max Temperature 17 °F 21 °F 48 °F (1949)
Min Temperature -21 °F -7 °F -45 °F (1956)
Degree Days  
Heating Degree Days 67 58  
Month to date heating degree days 467 475  
Since 1 July heating degree days 9859 10865  
Cooling Degree Days 0 0  
Month to date cooling degree days 0 0  
Year to date cooling degree days 0 0  
Moisture  
Dew Point -15 °F    
Average Humidity 54    
Maximum Humidity 82    
Minimum Humidity 17    
Precipitation  
Precipitation 0.00 in 0.01 in 0.22 in (1962)
Month to date precipitation 0.20 0.08  
Year to date precipitation 0.82 1.08  
Snow  
Snow 0.00 in 0.10 in 4.30 in (1962)
Month to date snowfall 2.6 1.4  
Since 1 July snowfall 45.5 57.7  
Snow Depth 22.00 in    
Sea Level Pressure  
Sea Level Pressure 29.53 in    
Wind  
Wind Speed 6 mph (NE)    
Max Wind Speed 15 mph    
Max Gust Speed -    
Visibility 10 miles    
Events      
T = Trace of Precipitation, MM = Missing Value Source: NWS Daily Summary

Daily Weather History Graph

Daily Weather History Graph

Search for Another Location

Airport or City:

Trip Planner

Search our weather history database for the weather conditions in past years. The results will help you decide how hot, cold, wet, or windy it might be!

Date:

Astronomy

Mar. 08, 2014 Rise Set
Actual Time 7:34 AM AKST 6:31 PM AKST
Civil Twilight 6:46 AM AKST 7:19 PM AKST
Nautical Twilight 5:49 AM AKST 8:17 PM AKST
Astronomical Twilight 4:48 AM AKST 9:18 PM AKST
Moon 9:57 AM AKST (3/8) 4:02 AM AKST (3/8)
Length of Visible Light 12h 33m
Length of Day
10h 56m
First Quarter, 53% of the Moon is Illuminated
Mar 8
First Quarter
Mar 16
Full
Mar 23
Last Quarter
Mar 30
New
Apr 7
First Quarter

Hourly Weather History & Observations

Time (AKST) Temp. Windchill Dew Point Humidity Pressure Visibility Wind Dir Wind Speed Gust Speed Precip Events Conditions
12:53 AM -7.1 °F -19.9 °F -15.0 °F 68% 29.67 in 10.0 mi NE 5.8 mph - N/A   Clear
1:53 AM -16.1 °F -30.6 °F -20.0 °F 82% 29.65 in 10.0 mi NNE 5.8 mph - N/A   Clear
3:53 AM -14.1 °F - -20.0 °F 75% 29.62 in 9.0 mi Calm Calm - N/A   Clear
4:53 AM -16.1 °F -26.2 °F -20.9 °F 79% 29.61 in 10.0 mi NNE 3.5 mph - N/A   Clear
5:53 AM -18.0 °F -33.0 °F -23.1 °F 78% 29.61 in 10.0 mi NE 5.8 mph - N/A   Clear
6:53 AM -14.1 °F -28.3 °F -20.9 °F 71% 29.60 in 10.0 mi NE 5.8 mph - N/A   Partly Cloudy
7:53 AM -17.0 °F -29.7 °F -24.0 °F 70% 29.59 in 10.0 mi NNE 4.6 mph - N/A   Partly Cloudy
8:53 AM -15.0 °F - -22.0 °F 71% 29.57 in 10.0 mi Calm Calm - N/A   Partly Cloudy
9:53 AM -6.0 °F -20.1 °F -14.1 °F 68% 29.55 in 10.0 mi NE 6.9 mph - N/A   Partly Cloudy
10:53 AM 1.9 °F -7.6 °F -11.0 °F 55% 29.54 in 10.0 mi East 4.6 mph - N/A   Partly Cloudy
11:53 AM 8.1 °F 1.4 °F -9.0 °F 46% 29.52 in 10.0 mi SE 3.5 mph - N/A   Partly Cloudy
12:53 PM 10.0 °F 3.6 °F -8.0 °F 44% 29.51 in 10.0 mi SSE 3.5 mph - N/A   Partly Cloudy
1:53 PM 14.0 °F - -9.0 °F 35% 29.49 in 10.0 mi Calm Calm - N/A   Partly Cloudy
2:53 PM 16.0 °F - -9.0 °F 32% 29.48 in 10.0 mi Calm Calm - N/A   Partly Cloudy
3:53 PM 17.1 °F 10.0 °F -8.0 °F 33% 29.46 in 10.0 mi NE 4.6 mph - N/A   Partly Cloudy
4:53 PM 10.9 °F -5.4 °F -7.1 °F 44% 29.46 in 10.0 mi NNE 15.0 mph - N/A   Partly Cloudy
5:53 PM 9.0 °F -6.6 °F -9.0 °F 44% 29.46 in 10.0 mi NNE 12.7 mph - N/A   Partly Cloudy
6:53 PM 6.1 °F -11.6 °F -11.0 °F 45% 29.47 in 10.0 mi NNE 15.0 mph - N/A   Partly Cloudy
7:53 PM 3.9 °F -13.7 °F -11.9 °F 48% 29.47 in 10.0 mi North 13.8 mph - N/A   Clear
8:53 PM 1.0 °F -14.9 °F -14.1 °F 49% 29.48 in 10.0 mi North 10.4 mph - N/A   Clear
9:53 PM 1.0 °F -15.8 °F -14.1 °F 49% 29.47 in 10.0 mi North 11.5 mph - N/A   Clear
10:53 PM 1.0 °F -16.6 °F -14.1 °F 49% 29.47 in 10.0 mi North 12.7 mph - N/A   Clear
11:53 PM 1.0 °F -14.9 °F -14.1 °F 49% 29.47 in 10.0 mi North 10.4 mph - N/A   Clear